星链-3308 (STARLINK-3308 )

导读 | 星芒AI

STARLINK-3308 是 SpaceX Starlink 卫星互联网项目中的一颗低轨通信卫星。它属于 Starlink 任务的第 14 批次(v1.5 版本),于 2022 年 9 月 30 日由猎鹰 9 号火箭从美国卡纳维拉尔角发射升空。该卫星运行在约 550 公里的轨道高度,旨在为全球用户提供高速、低延迟的互联网服务。作为 Starlink 网络的一部分,STARLINK-3308 与其他数千颗卫星协同工作,提升网络覆盖和连接稳定性。

基本信息
目录编号:
50846
目录名称:
STARLINK-3308
国际标识:
2022-001AV
轨道中心:
EARTH
卫星名称:
星链-3308
卫星全名:
星链-3308 (STARLINK-3308 )
卫星状态:
在轨 (已飞行1444 天)
发射日期:
2022-01-06 UTC
国别 :
美国 (US)
星等 :
--
轨道信息
数据来源 国际轨道数据 AOE轨道数据
星历时间 2025-12-19T20:31:32+0800
23小时前
查看轨道信息
2025-12-18T22:00:00+0800
1天前
查看轨道信息
半长轴 6917.883km 6917.856km
偏心率 0.0001438 0.0001574
轨道倾角 53.216° 53.215°
近地点辐角 89.762° 82.087°
升交点赤经 179.124° 183.338°
平近点角 270.354° 217.147°
近地点 538.751km 538.632km
远地点 540.741km 540.81km
周期 95.438分钟 95.437分钟
每日圈数 15.088394 15.08848
详细信息
固有亮度:
5
最大亮度:
2.5
卫星平台:
Starlink v1.5
覆盖范围:
全球
运营商:
太空探索技术公司
运营商所在国:
美国
制造商(研发单位):
太空探索技术公司
制造商所在国:
美国
使用方式:
暂无
卫星简介
星链(Starlink)计划是由太空探索技术公司(SpaceX)提出的一个巨型低轨卫星互联网星座项目,计划在2019年至2024年间在太空搭建由约1.2万颗卫星组成的“星链”网络,其中1584颗将部署在地球上空550千米处的近地轨道,并从2020年开始工作。该卫星仍在工作。
2D轨道图
3D轨道图
轨道高度分析图
轨道倾角分析图
轨道综合分析图
查看轨道综合分析图